COSMOS 1275 DEB, 12707

Orbit data source: Space-Track

COSMOS 1275 DEB, 12707 is space debris in LEO originally from a launch on Thu, 04 Jun 1981 UTC launched from the Plesetsk Missile And Space Complex (PKMTR). Debris objects in space refer to the collection of defunct objects orbiting the Earth. Examples of debris include non-operational satellites, rocket bodies, and fragments generated from explosions, collisions, or faulty payload assembly.

Loading next visibility...
Identifier
12707, 1981-053BB
Orbit
LEO
Country
Flag of CISCIS
Related business
Manufacturer
Unknown
Mission
Spacecraft
Bus & Motor
Unknown
Mass
Unknown
Launch date (UTC)
1981-06-04 (45 years ago)
Launch vehicle
Unknown
Launch site
Plesetsk Missile And Space Complex (PKMTR)
Object type
Payload
Rocket body
Debris
Shape & HBR
Unknown shape, 0.1 m
Radar Cross Section
Medium (>0.1 m² and <1 m²)

Expand to show TLE details & history
Last TLE update: 2 days ago

TLE from 2 days ago
0 COSMOS 1275 DEB
1 12707U 81053BB  26171.07805669  .00000338  00000-0  40926-3 0  9990
2 12707  83.0116  28.2292 0130862 122.5385  30.1766 13.59809122219329
Epoch: 2026-06-20T01:52Z
TLE epoch observation values (Epoch: 2026-06-20T01:52:24.098Z)
Latitude
26.34279°
Longitude
-91.63063°
Altitude
956 km
Speed
7.417 km/s
True Right ascension
13h 39m 04s
True Declination
26° 12' 36"
Sunlit
Object was in daylight at epoch
Visualization orbit readout
Latitude
Unknown
Longitude
Unknown
Altitude
Unknown
Speed
Unknown
Apparent Right ascension
Unknown
Apparent Declination
Unknown
Sunlit
N/A
Visualization observer readout
Local Sidereal Time
11:21:46
Azimuth
Unknown
Elevation
Unknown
Doppler factor
Unknown
Orbital elements
Apogee altitude
1,130.543 km
Perigee altitude
936.562 km
Semi-major axis
7,411.689 km
Eccentricity
0.01309
Inclination
83.0116°
RAAN
28.2292°
Arg. of periapsis
122.5385°
True anomaly
30.94117°
Mean anomaly
30.1766°
Eccentric anomaly
30.5578°
Mean motion
3.40148 °/min
Orbital period
105.84 mins
BSTAR
0.00040926
Loading maneuver chart data...
Computing Atmospheric mass density...
Loading historical data...
Loading historical data...
Loading historical data...
Loading historical data...
Loading historical data...
Loading historical data...
Loading historical data...

Documentation

Showing up to 5 results
|